Ketchikan, AK

3:04 AM AKST on January 21, 2019 (GMT -0900)
Ketchikan International

Weather History for PAKT - December, 2018

Change the Weather History Date:

Tuesday, December 25, 2018

  Actual Average Record
Temperature  
Mean Temperature 40 °F -  
Max Temperature 42 °F 42 °F 50 °F (1989)
Min Temperature 37 °F 33 °F 6 °F (1964)
Degree Days  
Heating Degree Days 26    
Moisture  
Dew Point 35 °F    
Average Humidity 84    
Maximum Humidity 97    
Minimum Humidity 53    
Precipitation  
Precipitation 0.02 in - - ()
Sea Level Pressure  
Sea Level Pressure 29.99 in    
Wind  
Wind Speed 6 mph (SSE)    
Max Wind Speed 29 mph    
Max Gust Speed 38 mph    
Visibility 10 miles    
Events Rain    
Averages and records for this station are not official NWS values.
T = Trace of Precipitation, MM = Missing Value Source: NWS Daily Summary

Daily Weather History Graph

Daily Weather History Graph

Search for Another Location

Airport or City:

Astronomy

Dec. 25, 2018 Rise Set
Actual Time 8:13 AM AKST 3:20 PM AKST
Civil Twilight 7:27 AM AKST 4:06 PM AKST
Nautical Twilight 6:39 AM AKST 4:54 PM AKST
Astronomical Twilight 5:54 AM AKST 5:39 PM AKST
Moon 7:28 PM AKST (12/25) 10:34 AM AKST (12/25)
Length of Visible Light 8h 38m
Length of Day
7h 06m
Waning Gibbous, 86% of the Moon is Illuminated
Dec 25
Waning Gibbous
Dec 29
Last Quarter
Jan 5
New
Jan 13
First Quarter
Jan 20
Full

Hourly Weather History & Observations

Time (AKST) Temp. Windchill Dew Point Humidity Pressure Visibility Wind Dir Wind Speed Gust Speed Precip Events Conditions
12:53 AM 39.0 °F - 37.9 °F 96% 30.17 in 10.0 mi Calm Calm - N/A   Overcast
1:53 AM 37.9 °F 35.5 °F 37.0 °F 97% 30.18 in 10.0 mi South 3.5 mph - N/A   Overcast
2:53 AM 37.9 °F 34.4 °F 37.0 °F 97% 30.18 in 10.0 mi South 4.6 mph - N/A   Overcast
3:53 AM 37.9 °F 35.5 °F 37.0 °F 97% 30.18 in 10.0 mi South 3.5 mph - N/A   Overcast
4:30 AM 39.0 °F 36.8 °F 37.0 °F 93% 30.17 in 10.0 mi South 3.5 mph - N/A   Overcast
5:04 AM 39.0 °F 34.8 °F 37.0 °F 93% 30.16 in 10.0 mi SSE 5.8 mph - 0.01 in Rain Light Rain
5:20 AM 39.0 °F 35.7 °F 37.9 °F 96% 30.16 in 10.0 mi South 4.6 mph - 0.01 in   Overcast
5:41 AM 39.0 °F 36.8 °F 37.9 °F 96% 30.16 in 9.0 mi South 3.5 mph - 0.01 in Rain Light Rain
5:48 AM 39.2 °F 35.9 °F 37.4 °F 93% 30.15 in 9.0 mi South 4.6 mph - 0.01 in Rain Light Rain
5:53 AM 39.0 °F 35.7 °F 37.0 °F 93% 30.16 in 5.0 mi South 4.6 mph - 0.01 in Rain Light Rain
6:06 AM 39.2 °F 33.6 °F 37.4 °F 93% 30.15 in 8.0 mi SE 8.1 mph - N/A Rain Light Rain
6:53 AM 39.2 °F 34.2 °F 37.4 °F 93% 30.15 in 10.0 mi South 6.9 mph - N/A Rain Light Rain
7:53 AM 39.2 °F 33.6 °F 37.4 °F 93% 30.14 in 10.0 mi SSE 8.1 mph - N/A   Overcast
8:53 AM 39.2 °F 34.2 °F 35.6 °F 87% 30.13 in 10.0 mi Variable 6.9 mph - N/A   Overcast
9:53 AM 39.2 °F 33.6 °F 35.6 °F 87% 30.11 in 10.0 mi SSE 8.1 mph - N/A   Mostly Cloudy
10:53 AM 41.0 °F 33.9 °F 35.6 °F 81% 30.09 in 10.0 mi SSE 12.7 mph - N/A   Mostly Cloudy
11:53 AM 41.0 °F 34.7 °F 35.6 °F 81% 30.05 in 10.0 mi SE 10.4 mph - N/A   Overcast
12:53 PM 39.2 °F 34.2 °F 35.6 °F 87% 30.01 in 10.0 mi South 6.9 mph - N/A   Partly Cloudy
1:53 PM 39.2 °F 34.2 °F 33.8 °F 81% 29.96 in 10.0 mi South 6.9 mph - N/A   Partly Cloudy
2:53 PM 39.2 °F 33.6 °F 33.8 °F 81% 29.92 in 10.0 mi South 8.1 mph - N/A   Clear
3:53 PM 39.2 °F 33.0 °F 30.2 °F 70% 29.89 in 10.0 mi SSE 9.2 mph - N/A   Partly Cloudy
4:53 PM 39.2 °F 34.2 °F 30.2 °F 70% 29.83 in 10.0 mi South 6.9 mph - N/A   Overcast
5:53 PM 42.8 °F 35.4 °F 26.6 °F 53% 29.79 in 10.0 mi SSE 15.0 mph 19.6 mph N/A   Overcast
6:53 PM 41.0 °F 34.3 °F 28.4 °F 61% 29.76 in 10.0 mi SSE 11.5 mph 21.9 mph N/A   Overcast
7:53 PM 39.2 °F 27.6 °F 30.2 °F 70% 29.74 in 10.0 mi ESE 28.8 mph 38.0 mph N/A Rain Light Rain
8:53 PM 37.4 °F 28.9 °F 32.0 °F 81% 29.71 in 10.0 mi SSE 13.8 mph - N/A Rain Light Rain
9:53 PM 39.9 °F 31.4 °F 30.9 °F 70% 29.68 in 10.0 mi SE 16.1 mph 23.0 mph 0.00 in Rain Light Rain
10:14 PM 37.9 °F 29.2 °F 32.0 °F 79% 29.67 in 10.0 mi SE 15.0 mph 23.0 mph 0.00 in Rain Light Rain
10:53 PM 37.9 °F 29.6 °F 33.1 °F 83% 29.67 in 10.0 mi SSE 13.8 mph 26.5 mph 0.01 in Rain Light Rain
11:53 PM 39.0 °F 30.6 °F 33.1 °F 79% 29.66 in 10.0 mi SE 15.0 mph 27.6 mph 0.00 in Rain Light Rain